Home   Weather   Pittsburgh   Past weeks
Flag for USA

Past Weather in Pittsburgh, Pennsylvania, USA — Yesterday and Last 2 Weeks

Now
66 °F

Sunny.


Feels Like: 66 °F
Forecast: 76 / 50 °F
Wind: No wind

Location: Allegheny County Airport

Current Time: Apr 22, 2019 at 8:12:32 pm

Latest Report: Apr 22, 2019 at 6:53 pm


Visibility: 10 mi

Pressure: 30.13 "Hg

Humidity: 47%

Dew Point: 45 °F

Location of PittsburghLocation

Past Weather in Pittsburgh — Graph

°F

Pittsburgh Temperature Yesterday

Maximum temperature yesterday: 52 °F (at 5:53 pm)
Minimum temperature yesterday: 45 °F (at 9:53 am)
Average temperature yesterday: 48 °F

High & Low Weather Summary for the Past Weeks

 TemperatureHumidityPressure
High79 °F (Apr 18, 3:53 pm)100% (Apr 14, 12:31 pm)30.27 "Hg (Apr 14, 12:31 pm)
Low35 °F (Apr 15, 9:53 am)19% (Apr 9, 5:53 pm)29.29 "Hg (Apr 14, 7:53 pm)
Average57 °F68%29.85 "Hg
* Reported Apr 7 6:53 pm — Apr 22 6:53 pm, Pittsburgh. Weather by CustomWeather, © 2019

Note: Actual official high and low records may vary slightly from our data, if they occured in-between our weather recording intervals... More about our weather records

Advertising

Pittsburgh Weather History for the Previous 24 Hours

Scroll right to see more
 ConditionsComfort  
Time TempWeatherWind HumidityBarometerVisibility
6:53 pm
Mon, Apr 22
66 °FSunny.No wind47%30.13 "Hg10 mi
5:53 pm65 °FSunny.7 mph49%30.14 "Hg10 mi
4:53 pm67 °FSunny.No wind47%30.16 "Hg10 mi
3:53 pm65 °FSunny.3 mph49%30.17 "Hg10 mi
2:53 pm61 °FSunny.No wind56%30.20 "Hg10 mi
1:53 pm60 °FPassing clouds.5 mph60%30.23 "Hg10 mi
12:53 pm56 °FScattered clouds.6 mph67%30.26 "Hg10 mi
12:40 pm58 °FScattered clouds.6 mph62%30.24 "Hg10 mi
11:53 am56 °FOvercast.No wind67%30.27 "Hg10 mi
10:53 am52 °FOvercast.3 mph72%30.27 "Hg10 mi
9:53 am51 °FOvercast.5 mph71%30.27 "Hg10 mi
8:53 am50 °FOvercast.No wind80%30.27 "Hg10 mi
7:53 am48 °FOvercast.No wind83%30.25 "Hg10 mi
6:53 am47 °FOvercast.3 mph86%30.23 "Hg10 mi
5:53 am46 °FOvercast.5 mph89%30.22 "Hg10 mi
4:53 am47 °FOvercast.No wind83%30.21 "Hg10 mi
3:53 am44 °FOvercast.No wind96%30.21 "Hg8 mi
2:53 am46 °FClear.3 mph83%30.20 "Hg10 mi
1:53 am46 °FClear.3 mph83%30.22 "Hg10 mi
12:53 am47 °FClear.5 mph80%30.20 "Hg10 mi
11:53 pm
Sun, Apr 21
48 °FClear.No wind77%30.20 "Hg10 mi
10:53 pm48 °FClear.No wind77%30.21 "Hg10 mi
9:53 pm48 °FPassing clouds.3 mph80%30.20 "Hg10 mi
8:53 pm49 °FOvercast.5 mph77%30.19 "Hg10 mi
Weather by CustomWeather, © 2019

See weather overview